{"data":{"norad_id":47839,"intl_designator":"2021-018BE","name":"STARLINK-2431","alt_names":[],"object_type":"PAYLOAD","status":"ACTIVE","operator":null,"country":"US","launch_date":"2021-03-11","launch_site_code":"AFETR","launch_vehicle":null,"mission":null,"orbit_class":"UNKNOWN","rcs_meters":null,"size_class":null,"mass_kg":null,"dimensions":null,"purposes":["comms"],"wikipedia_slug":null,"has_3d_model":false,"image_url":null,"decayed_at":null,"tle_current":{"epoch":"2026-09-20T01:43:08.482080Z","epoch_age_seconds":66247,"freshness":"FRESH","line1":"1 47839U 21018BE  26263.07162595 -.00001186  00000+0 -26451-4 0  9996","line2":"2 47839  53.1608  32.3456 0000887  81.8349 278.2753 15.31703549306882","mean_motion":15.31703549,"eccentricity":8.87e-5,"inclination_deg":53.1608,"raan_deg":32.3456,"arg_perigee_deg":81.8349,"mean_anomaly_deg":278.2753,"bstar":-2.6451e-5,"rev_number":30688,"period_min":94.012970129901,"perigee_km":470.12192141066,"apogee_km":471.33691031284,"semimajor_km":6848.8664158617,"source":"CELESTRAK","updated_at":"2026-09-20T09:00:38.753123Z"}}}